Flag for U.S.A. Weather past 2 weeks in Lakewood, New Jersey, U.S.A.

Now
75 °F

Scattered clouds.


Feels Like: 77 °F
Forecast: 61 / 77 °F
Wind: 9 mph from East

Location: Lakehurst Naval Air Station

Current Time: Sep 5, 2015 at 10:39:45 AM

Latest Report: Sep 5, 2015 at 10:00 AM


Visibility: 10 mi

Pressure: 30.25 "Hg

Humidity: 64%

Dew point: 62 °F

Location of LakewoodLocation

Historic Weather in Lakewood — Graph

°F

Lakewood temperature yesterday

Maximum temperature yesterday: 83 °F (at 11:00 AM)
Minimum temperature yesterday: 64 °F (at 7:00 AM)
Average temperature yesterday: 73 °F

Past Weeks' High & Low Weather Summary

 TemperatureHumidityPressure
High91 °F (Sep 3, 3:00 PM)100% (Aug 24, 1:00 AM)30.24 "Hg (Aug 24, 1:00 AM)
Low51 °F (Aug 29, 5:00 AM)35% (Aug 22, 4:00 PM)29.81 "Hg (Aug 25, 5:00 PM)
Average73 °F71%30.01 "Hg
* Reported Aug 21 9:00 AM — Sep 5 9:06 AM, Lakewood, Weather by CustomWeather, © 2015

Note: Actual official high and low records may vary slightly from our data, if they occured in-between our weather recording intervals... More about our weather records

Advertising

Lakewood weather history for previous 24 hours

 ConditionsComfort  
Time TempWeatherWind HumidityBarometerVisibility
9:06 AM
Sat, Sep 5
72 °FPartly sunny.10 mph71%30.24 "Hg10 mi
9:00 AM72 °FPartly sunny.10 mph73%30.24 "Hg10 mi
8:00 AM69 °FSunny.5 mph81%30.24 "Hg10 mi
7:00 AM66 °FClear.3 mph87%30.23 "Hg10 mi
6:00 AM67 °FClear.3 mph85%30.22 "Hg10 mi
5:00 AM70 °FOvercast.12 mph79%30.20 "Hg10 mi
4:00 AM71 °FOvercast.12 mph78%30.19 "Hg10 mi
3:00 AM71 °FOvercast.12 mph78%30.18 "Hg10 mi
2:00 AM71 °FOvercast.8 mph78%30.18 "Hg10 mi
1:00 AM72 °FOvercast.9 mph78%30.19 "Hg10 mi
12:00 AM72 °FOvercast.12 mph78%30.18 "Hg10 mi
11:00 PM
Fri, Sep 4
73 °FOvercast.12 mph76%30.17 "Hg10 mi
10:00 PM73 °FOvercast.8 mph81%30.16 "Hg10 mi
9:00 PM74 °FOvercast.13 mph76%30.14 "Hg10 mi
8:00 PM74 °FOvercast.10 mph76%30.12 "Hg10 mi
7:00 PM74 °FOvercast.14 mph79%30.11 "Hg10 mi
6:00 PM76 °FScattered clouds.16 mph74%30.10 "Hg10 mi
5:00 PM77 °FPartly sunny.15 mph74%30.09 "Hg8 mi
4:00 PM77 °FMostly cloudy.12 mph77%30.09 "Hg7 mi
3:00 PM78 °FMostly cloudy.17 mph76%30.08 "Hg7 mi
2:00 PM79 °FOvercast.16 mph72%30.07 "Hg7 mi
1:00 PM78 °FMostly cloudy.12 mph76%30.08 "Hg6 mi
12:00 PM79 °FMostly cloudy.14 mph74%30.06 "Hg7 mi
11:00 AM83 °FPartly sunny.14 mph68%30.03 "Hg5 mi
10:00 AM81 °FSunny.13 mph72%30.02 "Hg6 mi
Weather by CustomWeather, © 2015

See weather overviewHow to use our weather pages